FENGYUN 1C DEB, 30540

Orbit data source: Space-Track

FENGYUN 1C DEB, 30540 is space debris in SSO originally from a launch on Mon, 10 May 1999 UTC launched from the Taiyaun Space Center, China (TSC). Fengyun 1C debris stems from the Chinese weather satellite Fengyun-1C, which was intentionally destroyed by a Chinese anti-satellite missile in 2007. This event dramatically increased the amount of space debris, with thousands of trackable fragments posing hazards to satellites and human spaceflight. The Fengyun 1C debris cloud has become a focal point in discussions about space sustainability and the need for international regulations to prevent the creation of new debris.

Loading next visibility...
Identifier
30540, 1999-025AKE
Orbit
SSO
Country
Flag of CNCN / PRC
Related business
Manufacturer
Unknown
Mission
Spacecraft
Bus & Motor
Unknown
Mass
Unknown
Launch date (UTC)
1999-05-10 (27 years ago)
Launch vehicle
Unknown
Launch site
Taiyaun Space Center, China (TSC)
Object type
Payload
Rocket body
Debris
Shape & HBR
Unknown shape, 0.1 m
Radar Cross Section
Medium (>0.1 m² and <1 m²)

Expand to show TLE details & history
Last TLE update: 10 hours ago

TLE from 10 hours ago
0 FENGYUN 1C DEB
1 30540U 99025AKE 26237.31900964  .00002962  00000-0  10464-2 0  9995
2 30540  98.8870 357.3575 0050847  33.7357 353.1702 14.34728015  9488
Epoch: 2026-08-25T07:39Z
TLE epoch observation values (Epoch: 2026-08-25T07:39:22.432Z)
Latitude
26.52599°
Longitude
-95.52642°
Altitude
743.083 km
Speed
7.505 km/s
True Right ascension
23h 31m 37s
True Declination
26° 23' 19"
Sunlit
Object was in full shadow at epoch
Visualization orbit readout
Latitude
Unknown
Longitude
Unknown
Altitude
Unknown
Speed
Unknown
Apparent Right ascension
Unknown
Apparent Declination
Unknown
Sunlit
N/A
Visualization observer readout
Local Sidereal Time
09:24:38
Azimuth
Unknown
Elevation
Unknown
Doppler factor
Unknown
Orbital elements
Apogee altitude
809.48 km
Perigee altitude
736.756 km
Semi-major axis
7,151.255 km
Eccentricity
0.00508
Inclination
98.887°
RAAN
357.3575°
Arg. of periapsis
33.7357°
True anomaly
353.10047°
Mean anomaly
353.1702°
Eccentric anomaly
353.13538°
Mean motion
3.58897 °/min
Orbital period
100.31 mins
BSTAR
0.0010464
Loading maneuver chart data...
Computing Atmospheric mass density...

Documentation

Showing up to 5 results
|